Regional Weather Roundup
Issued by NWS

Home | Current Version | Previous Version | Graphics & Text | Print | Product List | Glossary On
Versions: 1 2 3 4 5 6 7 8 9 10 11 12 13 14 15 16 17 18 19 20 21 22 23 24 25 26 27 28 29 30 31 32 33 34 35 36 37 38 39 40 41 42 43 44 45 46 47 48 49 50
000
ASUS43 KMKX 291311
RWRWI

WISCONSIN REGIONAL WEATHER ROUNDUP
NATIONAL WEATHER SERVICE MILWAUKEE/SULLIVAN WI
800 AM CDT TUE JUL 29 2014

NOTE: "FAIR" INDICATES FEW OR NO CLOUDS BELOW 12,000 FEET WITH NO
SIGNIFICANT WEATHER AND/OR OBSTRUCTIONS TO VISIBILITY.

WIZ001-002-006>008-014>016-023>028-291400-
NORTHWEST WISCONSIN

CITY           SKY/WX    TMP DP  RH WIND       PRES   REMARKS
SUPERIOR ARPT  MOSUNNY   60  56  87 W5        30.07S
ASHLAND        PTSUNNY   61  56  83 SW3       30.07R
HAYWARD        MOSUNNY   56  54  93 CALM      30.10R
SIREN          SUNNY     59  56  90 W3        30.11S
RICE LAKE      NOT AVBL
LADYSMITH      MOSUNNY   60  56  88 W5        30.11S
EAU CLAIRE     SUNNY     60  57  89 MISG      30.10R
MENOMONIE      SUNNY     62  57  81 W5        30.11R
NEW RICHMOND   SUNNY     61  58  89 NW5       30.13S
OSCEOLA        SUNNY     60  60 100 CALM      30.15S
$$

WIZ003>005-009-010-017-018-291400-
NORTH CENTRAL WISCONSIN

CITY           SKY/WX    TMP DP  RH WIND       PRES   REMARKS
WOODRUFF       PTSUNNY   59  56  89 NW5       30.06S
RHINELANDER    CLOUDY    56  53  90 NW6       30.07R
EAGLE RIVER    MOSUNNY   57  56  97 NW7       30.05R
LAND O LAKES   MOSUNNY   59  55  85 NW7       30.06R
PHILLIPS       PTSUNNY   55  53  93 NW3       30.08S
TOMAHAWK       CLOUDY    54  53  97 CALM      30.07S
MEDFORD        MOSUNNY   57  55  94 CALM      30.08S
MERRILL        CLOUDY    57  55  92 CALM      30.07R
$$

WIZ029-030-035-036-043>047-291400-
CENTRAL WISCONSIN

CITY           SKY/WX    TMP DP  RH WIND       PRES   REMARKS
WAUSAU         CLOUDY    58  54  86 NW6       30.05S
MOSINEE        PTSUNNY   57  57 100 NW7       30.07R
MARSHFIELD     MOSUNNY   61  56  83 NW9       30.07R
STEVENS POINT  PTSUNNY   58  54  85 NW5       30.07R
WAUPACA        CLOUDY    63  55  75 W5        30.04S
WAUTOMA        CLOUDY    62  55  77 NW5       30.06R
WISC RAPIDS    MOSUNNY   60  55  83 NW5       30.08R
CAMP DOUGLAS   MOSUNNY   61  59  94 W7        30.08R
$$

WIZ011>013-019>022-031-037>040-048>050-291400-
NORTHEAST WISCONSIN

CITY           SKY/WX    TMP DP  RH WIND       PRES   REMARKS
ANTIGO         MOSUNNY   57  54  89 NW8       30.06S
STURGEON BAY   MOSUNNY   61  54  77 NW9       30.02R
GREEN BAY      PTSUNNY   62  56  80 N5        30.02S
MANITOWOC      PTSUNNY   63  56  78 NW8       30.02R
APPLETON       PTSUNNY   61  55  82 NW8       30.04R
CLINTONVILLE   SUNNY     61  52  72 NW6       30.04R
OSHKOSH        MOSUNNY   62  56  80 NW5       30.04R
$$

WIZ032>034-041-042-053>061-291400-
SOUTHWEST WISCONSIN

CITY           SKY/WX    TMP DP  RH WIND       PRES   REMARKS
LA CROSSE      SUNNY     62  57  83 CALM      30.10R
SPARTA         SUNNY     59  55  89 CALM      30.10S
VIROQUA        FAIR      58  58  99 CALM      30.10S
BOSCOBEL       SUNNY     60  56  86 CALM      30.10S
PRAIRIE DU CHI SUNNY     61  54  76 W3        30.11R
PLATTEVILLE    FAIR      58  56  91 W5        30.11S
$$

WIZ056-057-062-063-064-067-068-291400-
SOUTH CENTRAL WISCONSIN

CITY           SKY/WX    TMP DP  RH WIND       PRES   REMARKS
BARABOO/DELLS  SUNNY     60  52  75 W3        30.07S
LONE ROCK      SUNNY     62  56  80 SW6       30.09R
WATERTOWN      SUNNY     61  55  81 W8        30.05S
MADISON        SUNNY     63  54  72 CALM      30.07R
MIDDLETON      FAIR      63  54  74 W8        30.08S
MONROE         SUNNY     61  54  77 W9        30.08S
JANESVILLE     NOT AVBL
$$

WIZ051-052-058>065-066-070>072-291400-
SOUTHEAST WISCONSIN

CITY           SKY/WX    TMP DP  RH WIND       PRES   REMARKS
MILWAUKEE      MOSUNNY   64  54  69 NW9       30.03S
WAUKESHA       MOSUNNY   61  54  77 W7        30.05R
MILWAUKEE/TIMM SUNNY     61  54  77 NW62      30.04R
RACINE         MOSUNNY   63  55  75 NW9       30.04S
BURLINGTON     SUNNY     61  55  81 NW7       30.05R
KENOSHA        SUNNY     62  56  80 W8        30.04S
FOND DU LAC    MOSUNNY   61  55  81 NW6       30.05R
SHEBOYGAN      PTSUNNY   61  56  83 NW9       30.02R
WEST BEND      MOSUNNY   61  52  72 NW10      30.04R
JUNEAU         SUNNY     61  53  75 NW7       30.06S
$$

LSZ147-162-291400-
LAKE SUPERIOR

STATION/POSITION TIME  TEMP    WIND        PRES    WAVE
                       AIR SEA DIR/SP/G            HT/PER
                 (UTC) (F)     (DEG/KT/KT) (MB)    (FT/S)
W MID LAKE BUOY  1250   48 44  220/  8/  8 1017.0R   1
PORT WING        1240   60     190/  4/  5 1018.3R
SAXON HARBOR     1200          190/  4/  6 1017.9R
$$

LMZ867-665-643>646-291400-
LAKE MICHIGAN

STATION/POSITION TIME  TEMP    WIND        PRES    WAVE
                       AIR SEA DIR/SP/G            HT/PER
                 (UTC) (F)     (DEG/KT/KT) (MB)    (FT/S)
N MID LAKE BUOY  1250   56 51  300/  8/  8 1014.6R   0
NORTHPORT PIER   1200   61     320/ 11/ 14 1015.2R
SISTER BAY       1210   61     340/ 13/ 16   N/A
ALGOMA LAKESHORE 1106          310/  5/  7   N/A
KEWAUNEE LAKESHO 1200   59     300/  5/  8 1016.4R
SHEBOYGAN LAKESH 1300   63     290/  8/  9 1016.7R
PORT WASHINGTON  1200   62     300/  7/ 10 1016.9R
ATWATER BUOY     1300   63     290/ 10     1017.6R
MILWAUKEE LAKESH 1200   62     300/  8/ 12   N/A
S MID LAKE BUOY  1250   61 60  280/ 10/ 12 1016.4R   1/ 5
KENOSHA   LAKESH 1300   64     290/  8/ 14 1016.9R
$$

TC  - TEMPERATURE IN CELSIUS
VSB - VISIBILITY IN STATUTE MILES
WCI - WIND CHILL INDEX
HX  - HEAT INDEX



USA.gov is the U.S. government's official web portal to all federal, state and local government web resources and services.